Location: Albany
(35.0000°S, 118.0000°E)
Time: 04:09:43
(UTC-04:00)

Amateur Radio Satellites - All Passes

Search period start: 20 October 2014 03:39
Search period end: 21 October 2014 03:39
Location: Albany, 35.0000°S, 118.0000°E

Satellite Date Start Highest point End Downlink Frequencies (MHz)
Time Altitude Azimuth
Sapphire 20 Oct 03:40:13 03:45:06 36° 71° (ENE) 03:50:01 437.095 MHz 1200 baud AX-25 AFSK
AO-7 20 Oct 03:44:05 03:51:47 39° 81° (E) 03:59:22 29.400 - 29.500 MHz
Gurwin Techsat 1B 20 Oct 03:52:03 03:56:35 28° 248° (WSW) 04:01:04 435.225 FM
Uribyol 2 20 Oct 04:02:01 04:03:34 11° 242° (WSW) 04:05:06 436.500 FM
PCSat 20 Oct 04:02:49 04:08:09 65° 67° (ENE) 04:13:33 145.825 MHz
TMSAT-1 20 Oct 04:06:54 04:11:23 28° 248° (WSW) 04:15:50 436.925 FM
ITAMSAT 1 20 Oct 04:06:57 04:08:10 11° 241° (WSW) 04:09:24 435.822 SSB
RS-15 20 Oct 04:12:19 04:18:29 15° 167° (SSE) 04:24:32 29.354 - 29.394 USB, Beacon 29.352 USB
Uosat F 20 Oct 04:29:19 04:34:23 72° 78° (ENE) 04:39:23 435.120 FM
STRAND 1 20 Oct 04:53:41 04:56:08 14° 117° (ESE) 04:58:36 ?
OPAL 20 Oct 04:53:51 04:58:41 50° 282° (WNW) 05:03:38 ?
Sapphire 20 Oct 05:23:54 05:28:31 28° 235° (SW) 05:33:10 437.095 MHz 1200 baud AX-25 AFSK
JAS-2 20 Oct 05:25:48 05:30:59 50° 80° (E) 05:36:00 435.800 - 435.900 CW/SSB, 435.910 FM
AO-7 20 Oct 05:36:46 05:44:29 43° 244° (WSW) 05:52:09 29.400 - 29.500 MHz
PCSat 20 Oct 05:48:32 05:52:02 17° 230° (SW) 05:55:32 145.825 MHz
Hamsat 20 Oct 05:59:10 06:03:37 88° 257° (WSW) 06:07:58 145.90 MHz
Uosat F 20 Oct 06:10:40 06:12:30 12° 242° (WSW) 06:14:19 435.120 FM
SO-67 20 Oct 06:13:47 06:15:09 12° 87° (E) 06:16:31 435.3500 MHz FM
RS-15 20 Oct 06:25:05 06:36:07 38° 135° (SE) 06:46:35 29.354 - 29.394 USB, Beacon 29.352 USB
STRAND 1 20 Oct 06:29:37 06:34:43 65° 282° (WNW) 06:39:52 ?
Oscar 10/S400 20 Oct 06:45:23 13:27:11 53° 79° (E) 15:39:06 145.825 - 145.975 CW/USB, Beacon 145.810 USB
Saudisat 1A 20 Oct 07:03:28 07:06:24 18° 71° (ENE) 07:09:21 436.775 MHz
JAS-2 20 Oct 07:12:25 07:15:36 16° 244° (WSW) 07:18:43 435.800 - 435.900 CW/SSB, 435.910 FM
SO-67 20 Oct 07:45:06 07:48:12 29° 253° (WSW) 07:51:15 435.3500 MHz FM
HO-68 20 Oct 08:13:29 08:19:32 29° 84° (E) 08:25:31 435.675 MHz FM
RS-15 20 Oct 08:37:31 08:49:13 64° 292° (WNW) 09:00:19 29.354 - 29.394 USB, Beacon 29.352 USB
Saudisat 1A 20 Oct 08:41:29 08:45:38 39° 236° (SW) 08:49:50 436.775 MHz
UKube-1 20 Oct 08:46:41 08:49:13 15° 86° (E) 08:51:42 145.840 MHz, 145.915 MHz
PANSAT 20 Oct 09:06:49 09:09:51 21° 14° (NNE) 09:12:53 not established
FUNcube-1 20 Oct 09:17:28 09:19:36 13° 88° (E) 09:21:44 145.950 - 145.970 MHz USB
Oscar 11 20 Oct 09:31:28 09:35:46 47° 81° (E) 09:40:00 145.825 FM, Beacon 2401.500 USB
MaSat-1 20 Oct 09:44:19 09:48:31 49° 115° (ESE) 09:52:56 437.345 MHz
HO-68 20 Oct 10:00:32 10:07:21 47° 248° (WSW) 10:14:07 435.675 MHz FM
ZACube-1 20 Oct 10:05:43 10:10:08 48° 81° (E) 10:14:35 437.345 MHz
UKube-1 20 Oct 10:21:25 10:25:32 39° 252° (WSW) 10:29:36 145.840 MHz, 145.915 MHz
KITSAT 1 20 Oct 10:42:57 10:47:05 15° 80° (E) 10:51:12 435.175 FM
PANSAT 20 Oct 10:46:06 10:49:35 31° 1° (N) 10:53:04 not established
FUNcube-1 20 Oct 10:51:47 10:56:11 49° 254° (WSW) 11:00:36 145.950 - 145.970 MHz USB
Oscar 11 20 Oct 11:09:17 11:11:29 14° 246° (WSW) 11:13:40 145.825 FM, Beacon 2401.500 USB
MaSat-1 20 Oct 11:21:47 11:23:58 14° 283° (WNW) 11:26:12 437.345 MHz
ZACube-1 20 Oct 11:43:40 11:46:06 14° 247° (WSW) 11:48:32 437.345 MHz
Oscar 16 20 Oct 11:46:28 11:49:51 18° 115° (ESE) 11:53:14 437.025 USB, Beacon 2401.1428
JAS-1B 20 Oct 11:53:34 12:01:26 34° 118° (ESE) 12:09:52 435.800 - 435.900 CW/SSB
AO-Echo 20 Oct 12:22:07 12:25:45 19° 113° (ESE) 12:29:20 ?
PANSAT 20 Oct 12:26:11 12:29:20 23° 348° (NNW) 12:32:28 not established
ISS 20 Oct 12:28:12 12:30:24 16° 52° (NE) 12:32:36 145.800 FM
Sapphire 20 Oct 12:32:17 12:35:38 16° 131° (SE) 12:38:58 437.095 MHz 1200 baud AX-25 AFSK
KITSAT 1 20 Oct 12:33:14 12:41:20 90° 243° (WSW) 12:49:31 435.175 FM
Oscar 19 20 Oct 12:38:47 12:43:49 57° 107° (ESE) 12:48:57 437.125 CW, 437.150 USB
AO-27 20 Oct 12:44:52 12:49:09 26° 112° (ESE) 12:53:28 436.795 MHz FM
PCSat 20 Oct 12:54:34 12:59:07 27° 126° (SE) 13:03:38 145.825 MHz
SO-50 20 Oct 13:12:09 13:16:58 71° 63° (ENE) 13:21:43 436.795 FM
Oscar 16 20 Oct 13:23:46 13:28:44 49° 280° (W) 13:33:48 437.025 USB, Beacon 2401.1428
Gurwin Techsat 1B 20 Oct 13:29:52 13:34:41 36° 110° (ESE) 13:39:33 435.225 FM
Uribyol 2 20 Oct 13:34:06 13:39:17 85° 104° (ESE) 13:44:32 436.500 FM
ITAMSAT 1 20 Oct 13:38:49 13:44:02 88° 104° (ESE) 13:49:18 435.822 SSB
JAS-1B 20 Oct 13:42:24 13:51:10 61° 280° (W) 14:00:59 435.800 - 435.900 CW/SSB
TMSAT-1 20 Oct 13:44:23 13:49:12 36° 110° (ESE) 13:54:03 436.925 FM
AO-Echo 20 Oct 13:59:09 14:04:09 45° 279° (W) 14:09:05 ?
ISS 20 Oct 14:03:40 14:06:51 39° 218° (SW) 14:10:04 145.800 FM
Sapphire 20 Oct 14:14:09 14:19:33 68° 293° (WNW) 14:24:54 437.095 MHz 1200 baud AX-25 AFSK
Oscar 19 20 Oct 14:20:49 14:23:29 14° 272° (W) 14:26:11 437.125 CW, 437.150 USB
AO-27 20 Oct 14:23:50 14:28:29 32° 277° (W) 14:33:10 436.795 MHz FM
KITSAT 1 20 Oct 14:32:05 14:37:49 21° 223° (SW) 14:43:36 435.175 FM
PCSat 20 Oct 14:37:36 14:42:35 37° 289° (WNW) 14:47:31 145.825 MHz
AO-7 20 Oct 14:39:25 14:47:02 41° 116° (ESE) 14:54:42 29.400 - 29.500 MHz
SO-50 20 Oct 14:55:27 14:57:59 14° 226° (SW) 15:00:29 436.795 FM
UOSAT-12 20 Oct 15:02:54 15:07:22 83° 62° (ENE) 15:11:49 437.025 FM, 437.400 FM
Gurwin Techsat 1B 20 Oct 15:10:24 15:14:39 24° 275° (W) 15:18:58 435.225 FM
TMSAT-1 20 Oct 15:24:54 15:29:08 24° 275° (W) 15:33:25 436.925 FM
JAS-2 20 Oct 15:34:55 15:39:49 20° 115° (ESE) 15:44:25 435.800 - 435.900 CW/SSB, 435.910 FM
Uosat F 20 Oct 15:39:10 15:44:11 70° 106° (ESE) 15:49:15 435.120 FM
AO-7 20 Oct 16:31:55 16:39:40 41° 280° (W) 16:47:31 29.400 - 29.500 MHz
UOSAT-12 20 Oct 16:46:52 16:48:03 11° 225° (SW) 16:49:13 437.025 FM, 437.400 FM
Hamsat 20 Oct 16:49:00 16:53:04 42° 107° (ESE) 16:57:13 145.90 MHz
OPAL 20 Oct 17:06:44 17:11:55 57° 77° (ENE) 17:17:03 ?
Saudisat 1A 20 Oct 17:10:54 17:15:18 62° 121° (ESE) 17:19:39 436.775 MHz
JAS-2 20 Oct 17:16:52 17:24:20 70° 282° (WNW) 17:31:05 435.800 - 435.900 CW/SSB, 435.910 FM
Uosat F 20 Oct 17:22:08 17:23:23 11° 271° (W) 17:24:38 435.120 FM
SO-67 20 Oct 18:13:55 18:17:15 45° 105° (ESE) 18:20:38 435.3500 MHz FM
Hamsat 20 Oct 18:26:58 18:29:11 14° 272° (W) 18:31:26 145.90 MHz
HO-68 20 Oct 18:40:52 18:44:56 16° 122° (ESE) 18:48:59 435.675 MHz FM
STRAND 1 20 Oct 18:43:38 18:48:43 56° 79° (E) 18:53:43 ?
OPAL 20 Oct 18:47:03 18:50:16 17° 242° (WSW) 18:53:29 ?
Saudisat 1A 20 Oct 18:53:30 18:54:17 10° 287° (WNW) 18:55:03 436.775 MHz
Oscar 11 20 Oct 20:23:41 20:27:14 25° 110° (ESE) 20:30:50 145.825 FM, Beacon 2401.500 USB
STRAND 1 20 Oct 20:24:26 20:27:22 16° 244° (WSW) 20:30:18 ?
HO-68 20 Oct 20:24:27 20:31:39 87° 286° (WNW) 20:38:55 435.675 MHz FM
KITSAT 1 20 Oct 20:30:54 20:37:34 27° 132° (SE) 20:44:10 435.175 FM
ISS 20 Oct 20:34:52 20:38:11 51° 140° (SE) 20:41:28 145.800 FM
RS-15 20 Oct 20:45:07 20:54:49 30° 77° (ENE) 21:04:40 29.354 - 29.394 USB, Beacon 29.352 USB
ZACube-1 20 Oct 20:59:45 21:03:09 25° 110° (ESE) 21:06:37 437.345 MHz
UKube-1 20 Oct 21:13:02 21:17:24 71° 282° (WNW) 21:21:49 145.840 MHz, 145.915 MHz
FUNcube-1 20 Oct 21:44:45 21:48:55 87° 103° (ESE) 21:53:12 145.950 - 145.970 MHz USB
SO-50 20 Oct 21:47:45 21:51:30 25° 128° (SE) 21:55:11 436.795 FM
Oscar 11 20 Oct 21:59:48 22:03:19 24° 276° (W) 22:06:53 145.825 FM, Beacon 2401.500 USB
ISS 20 Oct 22:13:03 22:14:31 12° 306° (NW) 22:16:00 145.800 FM
HO-68 20 Oct 22:17:30 22:20:09 12° 270° (W) 22:22:48 435.675 MHz FM
KITSAT 1 20 Oct 22:25:30 22:33:35 68° 293° (WNW) 22:41:34 435.175 FM
ZACube-1 20 Oct 22:36:13 22:39:28 22° 275° (W) 22:42:47 437.345 MHz
RS-15 20 Oct 22:54:08 23:06:13 72° 238° (WSW) 23:18:35 29.354 - 29.394 USB, Beacon 29.352 USB
MaSat-1 20 Oct 23:21:58 23:23:47 17° 76° (ENE) 23:25:43 437.345 MHz
SO-50 20 Oct 23:28:09 23:31:59 28° 292° (WNW) 23:35:45 436.795 FM
UOSAT-12 20 Oct 23:35:51 23:39:40 28° 127° (SE) 23:43:30 437.025 FM, 437.400 FM
Oscar 19 21 Oct 00:54:19 00:58:44 27° 84° (E) 01:03:05 437.125 CW, 437.150 USB
MaSat-1 21 Oct 00:58:19 00:59:30 12° 235° (SW) 01:00:45 437.345 MHz
AO-27 21 Oct 01:03:12 01:04:53 11° 89° (E) 01:06:34 436.795 MHz FM
RS-15 21 Oct 01:12:20 01:21:25 23° 212° (SSW) 01:30:33 29.354 - 29.394 USB, Beacon 29.352 USB
UOSAT-12 21 Oct 01:16:01 01:19:41 26° 292° (WNW) 01:23:21 437.025 FM, 437.400 FM
JAS-1B 21 Oct 01:33:48 01:42:40 61° 81° (E) 01:50:00 435.800 - 435.900 CW/SSB
Oscar 16 21 Oct 01:38:37 01:43:55 78° 77° (ENE) 01:49:08 437.025 USB, Beacon 2401.1428
Gurwin Techsat 1B 21 Oct 01:50:15 01:53:56 19° 86° (E) 01:57:36 435.225 FM
Uribyol 2 21 Oct 01:50:28 01:55:23 40° 81° (E) 02:00:15 436.500 FM
ITAMSAT 1 21 Oct 01:55:21 02:00:18 42° 81° (E) 02:05:11 435.822 SSB
TMSAT-1 21 Oct 02:04:24 02:08:04 19° 86° (E) 02:11:43 436.925 FM
AO-Echo 21 Oct 02:09:43 02:14:31 78° 78° (ENE) 02:19:14 ?
Oscar 19 21 Oct 02:33:23 02:38:00 32° 249° (WSW) 02:42:34 437.125 CW, 437.150 USB
AO-27 21 Oct 02:39:37 02:44:50 69° 254° (WSW) 02:50:00 436.795 MHz FM
AO-7 21 Oct 02:47:27 02:51:11 13° 89° (E) 02:54:52 29.400 - 29.500 MHz
Sapphire 21 Oct 03:10:25 03:14:46 25° 73° (ENE) 03:19:08 437.095 MHz 1200 baud AX-25 AFSK
Oscar 16 21 Oct 03:20:47 03:22:31 12° 242° (WSW) 03:24:15 437.025 USB, Beacon 2401.1428
JAS-1B 21 Oct 03:25:08 03:32:20 28° 240° (WSW) 03:38:41 435.800 - 435.900 CW/SSB
Gurwin Techsat 1B 21 Oct 03:28:58 03:34:05 46° 252° (WSW) 03:39:09 435.225 FM
Uribyol 2 21 Oct 03:30:38 03:34:33 22° 247° (WSW) 03:38:27 436.500 FM
